Regional Weather Roundup
Issued by NWS

Home | Current Version | Previous Version | Text Only | Print | Product List | Glossary Off
Versions: 1 2 3 4 5 6 7 8 9 10 11 12 13 14 15 16 17 18 19 20 21 22 23 24 25 26 27 28 29 30 31 32 33 34 35 36 37 38 39 40 41 42 43 44 45 46 47 48 49 50

000
ASUS43 KFSD 211810
RWRSD

WEATHER ROUNDUP FOR SOUTH DAKOTA
NATIONAL WEATHER SERVICE SIOUX FALLS SD
100 PM CDT SUN SEP 21 2014

NOTE: "FAIR" INDICATES FEW OR NO CLOUDS BELOW 12,000 FEET WITH NO
SIGNIFICANT WEATHER AND/OR OBSTRUCTIONS TO VISIBILITY.


SDZ001>005-009-010-012>017-211900-
NORTHWEST AND NORTH CENTRAL SOUTH DAKOTA

CITY           SKY/WX    TMP DP  RH WIND       PRES   REMARKS
BUFFALO          N/A     70  37  29 S3        30.27S
FAITH            N/A     67  38  34 VRB3      30.33S
MOBRIDGE       SUNNY     69  45  41 NW7       30.28S
$$

SDZ012>016-024>037-041>051-057-063-072>074-211900-
SOUTHWEST AND SOUTH CENTRAL SOUTH DAKOTA

CITY           SKY/WX    TMP DP  RH WIND       PRES   REMARKS
RAPID CTY ARPT SUNNY     69  38  32 SE6       30.35F
PIERRE         SUNNY     69  43  38 NW10      30.30F
CUSTER         SUNNY     64  34  32 S7        30.41S
ELLSWORTH AFB  SUNNY     69  36  29 VRB2      30.35S
PHILIP         SUNNY     71  38  29 NW7       30.32F
PINE RIDGE     SUNNY     69  36  29 CALM      30.36F
WINNER         FAIR      70  40  33 NW15      30.32F
$$

SDZ004>011-016>023-039-040-211900-
NORTHEAST SOUTH DAKOTA

CITY           SKY/WX    TMP DP  RH WIND       PRES   REMARKS
ABERDEEN       MOSUNNY   68  49  50 N13       30.27S
WATERTOWN      SUNNY     65  45  48 N15G25    30.24S
SISSETON         N/A     67  50  54 N15G21    30.23S
$$

SDZ017-020-022-023-036>040-048>070-211900-
SOUTHEAST SOUTH DAKOTA

CITY           SKY/WX    TMP DP  RH WIND       PRES   REMARKS
SIOUX FALLS    MOSUNNY   69  46  43 N14G22    30.24S
HURON          MOSUNNY   68  46  45 N9G20     30.27S
CHAMBERLAIN    SUNNY     69  42  37 NW10      30.29F
MITCHELL       MOSUNNY   69  46  43 NW12      30.28S
YANKTON        MOSUNNY   68  46  45 N17G25    30.26F
$$

ABBREVIATIONS USED IN REMARKS
   TC - TEMPERATURE IN CELSIUS
  WCI - WIND CHILL INDEX
   HX - HEAT INDEX
  VSB - VISIBILITY




USA.gov is the U.S. government's official web portal to all federal, state and local government web resources and services.